User: anonymous   Login
Location: Stamford Observatory
(41.1241°N, 73.5498°W)
Time: 16:51:55
(UTC-04:00)
Language:

IRS-P3 - Orbit

View from above orbital plane
View from above orbital plane
View from above satellite
View from above satellite

Ground track
Ground track

The orbit data is extracted from the following two-line orbital elements,

1 23827U 96017A   17176.24596756 +.00000002 +00000-0 +20714-4 0  9991
2 23827 098.7253 113.9299 0003937 030.3969 329.7437 14.22510119103571
Epoch (UTC): 25 June 2017 05:54:11
Eccentricity: 0.0003937
inclination: 98.7253°
perigee height: 814 km
apogee height: 820 km
right ascension of ascending node: 113.9299°
argument of perigee: 30.3969°
revolutions per day: 14.22510119
mean anomaly at epoch: 329.7437°
orbit number at epoch: 10357

The dashed part of the orbit path shows where the satellite is in the earth's shadow,  

DLR